{"data":{"norad_id":57854,"intl_designator":"2023-141Q","name":"STARLINK-30412","alt_names":[],"object_type":"PAYLOAD","status":"ACTIVE","operator":null,"country":"US","launch_date":"2023-09-12","launch_site_code":"AFWTR","launch_vehicle":null,"mission":null,"orbit_class":"UNKNOWN","rcs_meters":null,"size_class":null,"mass_kg":null,"dimensions":null,"purposes":["comms"],"wikipedia_slug":null,"has_3d_model":false,"image_url":null,"decayed_at":null,"tle_current":{"epoch":"2026-05-25T02:53:51.107424Z","epoch_age_seconds":65438,"freshness":"FRESH","line1":"1 57854U 23141Q   26145.12073041  .00000634  00000+0  33542-4 0  9999","line2":"2 57854  53.1615 288.8442 0001146 105.5410 254.5718 15.30187133152031","mean_motion":15.30187133,"eccentricity":0.0001146,"inclination_deg":53.1615,"raan_deg":288.8442,"arg_perigee_deg":105.541,"mean_anomaly_deg":254.5718,"bstar":3.3542e-5,"rev_number":15203,"period_min":94.106137017164,"perigee_km":474.46808968129,"apogee_km":476.03888678119,"semimajor_km":6853.3904882312,"source":"CELESTRAK","updated_at":"2026-05-25T13:38:18.416102Z"}}}